#timestamp,LO_Frequency,Hit,StdDev 
1622934015.9,286047005.0,N
1622934035.7,286047004.6,N
1622934055.5,286047005.9,N
1622934075.4,286047003.3,N
1622934095.2,286047003.1,N
1622934115.1,286047004.6,N
1622934116.0,286047004.6,N
1622934135.8,286047003.0,N
1622934155.6,286047003.9,N
1622934175.5,286047001.4,N
1622934195.3,286047005.7,N
1622934215.1,286047006.1,N
1622934235.9,286047006.9,Y
1622934255.7,286047004.0,P
1622934275.6,286047003.1,P
1622934295.4,286047003.6,P
1622934315.2,286047004.0,Y
1622934335.1,286046999.8,P
1622934336.0,286046999.8,N
1622934355.8,286046998.3,N
1622934375.7,286046998.1,N
1622934395.5,286046997.1,N
1622934415.3,286046996.5,N
1622934435.2,286046995.1,N
1622934455.0,286046996.1,N
1622934455.9,286046996.1,N
1622934475.7,286046995.2,N
1622934495.6,286046997.3,N
1622934515.4,286046999.6,N
1622934535.3,286046999.0,N
1622934555.1,286046998.7,N
1622934556.0,286046998.7,N
1622934575.8,286046997.7,N
1622934595.7,286046995.8,N
1622934615.5,286046992.1,Y
1622934635.3,286046998.0,P
1622934655.2,286046996.3,P
1622934675.0,286046999.0,N
1622934675.9,286046999.0,N
1622934695.8,286046997.3,N
1622934715.6,286046996.9,Y
1622934735.4,286047000.2,P
1622934755.3,286047000.6,N
1622934775.1,286046999.3,N
1622934795.8,286046998.5,N
1622934815.7,286046998.8,N
1622934835.5,286047001.6,N
1622934855.4,286047001.0,N
1622934875.2,286046999.2,N
1622934895.0,286046999.1,N
1622934895.9,286046999.1,N
1622934915.8,286046997.0,N
1622934935.6,286046996.7,N
1622934955.4,286046999.1,N
1622934975.3,286046998.5,N
1622934995.1,286046996.8,N
1622935015.9,286046996.6,N
1622935035.7,286046999.3,N
1622935055.5,286047000.4,N
1622935075.4,286047002.3,N
1622935095.2,286047001.7,N
1622935115.0,286047004.1,N
1622935115.9,286047004.1,N
1622935135.8,286047003.7,N
1622935155.6,286047002.0,N
1622935175.4,286047000.5,N
1622935195.3,286047000.0,N
1622935215.1,286047000.1,N
1622935235.9,286047001.7,N
1622935255.7,286047002.7,N
1622935275.5,286047002.2,N
1622935295.4,286047001.2,N
1622935315.2,286047001.4,N
1622935335.0,286047006.0,N
1622935335.9,286047006.0,N
1622935355.8,286047003.5,N
1622935375.6,286047003.6,N
1622935395.5,286047001.8,N
1622935415.3,286046998.5,N
1622935435.1,286047000.7,N
1622935455.9,286047002.4,N
1622935475.7,286046999.8,N
1622935495.5,286047002.7,N
1622935515.4,286047001.2,N
1622935535.2,286046998.3,N
1622935555.1,286046996.9,N
1622935556.0,286046996.9,N
1622935575.8,286046996.7,N
1622935595.6,286046999.0,N
1622935615.5,286046996.8,N
1622935635.3,286046998.8,N
1622935655.1,286047001.2,N
1622935675.9,286047000.7,N
1622935695.7,286046999.8,N
1622935715.6,286047002.7,N
1622935735.4,286046999.7,N
1622935755.2,286047001.9,N
1622935775.1,286047001.5,N
1622935776.0,286047001.5,N
1622935795.8,286047001.8,N
1622935815.6,286047001.6,N
1622935835.5,286047008.4,Y
1622935855.3,286046993.5,P
1622935875.2,286046999.4,N
1622935895.9,286047002.7,N
1622935915.7,286047000.0,N
1622935935.6,286046999.9,N
1622935955.4,286046998.6,N
1622935975.2,286046997.8,N
1622935995.1,286046996.7,N
1622935996.0,286046996.7,N
1622936015.8,286046999.5,N
1622936035.7,286046995.0,N
1622936055.5,286046998.0,N
1622936075.3,286046996.8,N
1622936095.2,286046999.5,N
1622936115.0,286047001.0,N
1622936115.9,286047001.0,N
1622936135.8,286047002.4,N
1622936155.6,286047002.7,N
1622936175.4,286047002.1,N
1622936195.3,286046998.4,N
1622936215.1,286046998.3,N
1622936235.8,286046998.9,N
1622936255.7,286047001.8,N
1622936275.5,286047005.6,N
1622936295.4,286047003.0,N
1622936315.2,286047001.5,N
1622936335.0,286047000.4,N
1622936335.9,286047000.4,N
1622936355.8,286046999.5,N
1622936375.6,286046998.1,N
1622936395.4,286047000.8,N
1622936415.3,286047000.5,N
1622936435.1,286047000.9,N
1622936455.8,286046999.3,N
1622936475.7,286047002.4,N
1622936495.5,286046998.9,N
1622936515.4,286046999.1,N
1622936535.2,286046998.2,N
1622936555.0,286046999.7,N
1622936555.9,286046999.7,N
1622936575.8,286047001.2,N
1622936595.6,286046999.9,N
1622936615.4,286046996.5,N
1622936635.3,286046999.9,N
1622936655.1,286047001.1,N
1622936675.9,286047000.6,N
1622936695.7,286046999.8,N
1622936715.5,286047002.5,N
1622936735.4,286047000.7,N
1622936755.2,286046999.2,N
1622936775.0,286047000.9,N
1622936775.9,286047000.9,N
1622936795.8,286047000.0,N
1622936815.6,286046999.7,N
1622936835.5,286047000.4,N
1622936855.3,286047001.7,N
1622936875.1,286047000.7,N
1622936895.9,286047002.7,N
1622936915.7,286046995.2,Y
1622936935.6,286046996.6,P
1622936955.4,286047001.1,N
1622936975.2,286046996.6,N
1622936995.1,286046995.1,N
1622936996.0,286046995.1,N
1622937015.8,286046993.3,N
1622937035.6,286046995.8,N
1622937055.5,286046993.5,N
1622937075.3,286046994.6,N
1622937095.2,286046996.3,N
1622937115.9,286046995.8,N
1622937135.7,286046997.1,N
1622937155.6,286046995.2,N
1622937175.4,286046995.7,N
1622937195.2,286046993.6,Y
1622937215.1,286047003.8,P
1622937216.0,286047003.8,N
1622937235.8,286046993.6,N
1622937255.7,286046998.1,N
1622937275.5,286047000.3,N
1622937295.3,286047003.4,N
1622937315.2,286047003.2,N
1622937335.0,286047001.4,N
1622937335.9,286047001.4,N
1622937355.8,286047005.0,N
1622937375.6,286047004.8,N
1622937395.4,286047004.5,N
1622937415.3,286047004.0,N
1622937435.1,286047002.2,N
1622937455.8,286047002.6,N
1622937475.7,286047001.4,N
1622937495.5,286047007.6,N
1622937515.4,286047004.8,N
1622937535.2,286047007.1,N
1622937555.0,286047006.8,N
1622937555.9,286047006.8,N
1622937575.8,286047008.7,N
1622937595.6,286047008.6,N
